Weather History for Sparta, TN

Change the Weather History Date:

Monday, September 30, 2013

  Actual Average (KCSV) Record (KCSV)
Temperature  
Mean Temperature 63 °F 62 °F  
Max Temperature 78 °F 73 °F 86 °F (1998)
Min Temperature 48 °F 51 °F 35 °F (1967)
Degree Days  
Heating Degree Days 2    
Month to date heating degree days  
Since 1 July heating degree days  
Cooling Degree Days 0    
Month to date cooling degree days  
Year to date cooling degree days  
Growing Degree Days 13 (Base 50)    
Moisture  
Dew Point 54 °F    
Average Humidity 79    
Maximum Humidity 100    
Minimum Humidity 44    
Precipitation  
Precipitation 0.00 in 0.13 in 1.97 in (1985)
Month to date precipitation 3.88  
Year to date precipitation 42.00  
Sea Level Pressure  
Sea Level Pressure 30.05 in    
Wind  
Wind Speed 2 mph (SSW)    
Max Wind Speed 13 mph    
Max Gust Speed -    
Visibility 8 miles    
Events      
T = Trace of Precipitation, MM = Missing Value Source: NWS Daily Summary

Daily Weather History Graph

Daily Weather History Graph

Search for Another Location

Airport:

Trip Planner

Search our weather history database for the weather conditions in past years. The results will help you decide how hot, cold, wet, or windy it might be!

Date:

Astronomy

Sep. 30, 2013 Rise Set
Actual Time 6:36 AM CDT 6:26 PM CDT
Civil Twilight 6:11 AM CDT 6:52 PM CDT
Nautical Twilight 5:41 AM CDT 7:22 PM CDT
Astronomical Twilight 5:11 AM CDT 7:51 PM CDT
Moon 2:19 AM CDT (9/30) 3:51 PM CDT (9/30)
Length of Visible Light 12h 41m
Length of Day
11h 50m
Waning Crescent, 19% of the Moon is Illuminated
Sep 30
Waning Crescent
Oct 4
New
Oct 11
First Quarter
Oct 18
Full
Oct 26
Last Quarter

Hourly Weather History & Observations

Time (CDT) Temp. Dew Point Humidity Pressure Visibility Wind Dir Wind Speed Gust Speed Precip Events Conditions
12:35 AM 51.8 °F 51.8 °F 100% 30.05 in 7.0 mi Calm Calm - N/A   Clear
12:55 AM 51.8 °F 51.8 °F 100% 30.05 in 0.8 mi Calm Calm - N/A   Unknown
1:15 AM 51.8 °F 51.8 °F 100% 30.05 in 4.0 mi Calm Calm - N/A   Clear
1:35 AM 51.8 °F 51.8 °F 100% 30.05 in 2.5 mi Calm Calm - N/A   Clear
1:55 AM 51.8 °F 51.8 °F 100% 30.05 in 2.0 mi Calm Calm - N/A   Clear
2:15 AM 51.8 °F 51.8 °F 100% 30.04 in 1.5 mi Calm Calm - N/A   Clear
2:35 AM 50.0 °F 50.0 °F 100% 30.03 in 1.5 mi Calm Calm - N/A   Clear
2:55 AM 48.2 °F 48.2 °F 100% 30.04 in 5.0 mi Calm Calm - N/A   Clear
3:15 AM 48.2 °F 48.2 °F 100% 30.04 in 0.5 mi Calm Calm - N/A   Unknown
3:35 AM 50.0 °F 50.0 °F 100% 30.04 in 4.0 mi Calm Calm - N/A   Clear
3:55 AM 48.2 °F 48.2 °F 100% 30.04 in 4.0 mi Calm Calm - N/A   Clear
4:15 AM 48.2 °F 48.2 °F 100% 30.04 in 0.5 mi Calm Calm - N/A   Unknown
4:35 AM 50.0 °F 50.0 °F 100% 30.05 in 10.0 mi Calm Calm - N/A   Clear
4:55 AM 50.0 °F 50.0 °F 100% 30.05 in 3.0 mi Calm Calm - N/A   Clear
5:15 AM 51.8 °F 51.8 °F 100% 30.05 in 8.0 mi Calm Calm - N/A   Mostly Cloudy
5:35 AM 51.8 °F 51.8 °F 100% 30.05 in 10.0 mi Calm Calm - N/A   Overcast
5:55 AM 53.6 °F 51.8 °F 94% 30.05 in 10.0 mi Calm Calm - N/A   Overcast
6:15 AM 53.6 °F 53.6 °F 100% 30.06 in 10.0 mi Calm Calm - N/A   Partly Cloudy
6:35 AM 53.6 °F 51.8 °F 94% 30.06 in 9.0 mi Calm Calm - N/A   Clear
6:55 AM 53.6 °F 51.8 °F 94% 30.06 in 9.0 mi Calm Calm - N/A   Scattered Clouds
7:15 AM 55.4 °F 55.4 °F 100% 30.06 in 10.0 mi Calm Calm - N/A   Mostly Cloudy
7:35 AM 57.2 °F 55.4 °F 94% 30.07 in 10.0 mi Calm Calm - N/A   Scattered Clouds
7:55 AM 59.0 °F 55.4 °F 88% 30.07 in 10.0 mi Calm Calm - N/A   Scattered Clouds
8:15 AM 60.8 °F 57.2 °F 88% 30.07 in 10.0 mi South 3.5 mph - N/A   Mostly Cloudy
8:35 AM 60.8 °F 55.4 °F 82% 30.08 in 10.0 mi South 3.5 mph - N/A   Scattered Clouds
8:55 AM 62.6 °F 55.4 °F 77% 30.08 in 10.0 mi SSE 5.8 mph - N/A   Scattered Clouds
9:15 AM 64.4 °F 55.4 °F 73% 30.09 in 10.0 mi South 5.8 mph - N/A   Mostly Cloudy
9:35 AM 66.2 °F 57.2 °F 73% 30.08 in 10.0 mi SSE 6.9 mph - N/A   Mostly Cloudy
9:55 AM 69.8 °F 55.4 °F 60% 30.09 in 10.0 mi South 6.9 mph - N/A   Scattered Clouds
10:15 AM 69.8 °F 57.2 °F 64% 30.08 in 10.0 mi South 9.2 mph - N/A   Clear
10:35 AM 69.8 °F 55.4 °F 60% 30.08 in 10.0 mi South 8.1 mph - N/A   Clear
10:55 AM 71.6 °F 57.2 °F 60% 30.08 in 10.0 mi South 5.8 mph - N/A   Clear
11:15 AM 71.6 °F 57.2 °F 60% 30.07 in 10.0 mi Calm Calm - N/A   Clear
11:35 AM 73.4 °F 57.2 °F 57% 30.07 in 10.0 mi SSE 8.1 mph - N/A   Clear
11:55 AM 75.2 °F 57.2 °F 53% 30.07 in 10.0 mi SW 8.1 mph - N/A   Partly Cloudy
12:15 PM 73.4 °F 55.4 °F 53% 30.06 in 10.0 mi SW 11.5 mph - N/A   Partly Cloudy
12:35 PM 75.2 °F 53.6 °F 47% 30.05 in 10.0 mi SSW 10.4 mph - N/A   Scattered Clouds
12:55 PM 77.0 °F 55.4 °F 47% 30.04 in 10.0 mi SSW 8.1 mph - N/A   Partly Cloudy
1:15 PM 77.0 °F 53.6 °F 44% 30.03 in 10.0 mi SSW 5.8 mph - N/A   Clear
1:35 PM 75.2 °F 53.6 °F 47% 30.02 in 10.0 mi SSW 12.7 mph - N/A   Clear
1:55 PM 77.0 °F 53.6 °F 44% 30.01 in 10.0 mi SSW 5.8 mph - N/A   Partly Cloudy
2:15 PM 77.0 °F 53.6 °F 44% 30.01 in 10.0 mi Variable 4.6 mph - N/A   Partly Cloudy
2:35 PM 77.0 °F 55.4 °F 47% 30.01 in 10.0 mi SW 6.9 mph - N/A   Scattered Clouds
2:55 PM 75.2 °F 55.4 °F 50% 30.01 in 10.0 mi Calm Calm - N/A   Mostly Cloudy
3:15 PM 78.8 °F 55.4 °F 44% 30.01 in 10.0 mi WSW 5.8 mph - N/A   Mostly Cloudy
3:35 PM 77.0 °F 53.6 °F 44% 30.00 in 10.0 mi Calm Calm - N/A   Partly Cloudy
3:55 PM 77.0 °F 53.6 °F 44% 30.00 in 10.0 mi WSW 5.8 mph - N/A   Mostly Cloudy
4:15 PM 75.2 °F 55.4 °F 50% 30.00 in 10.0 mi WSW 3.5 mph - N/A   Partly Cloudy
4:35 PM 71.6 °F 60.8 °F 69% 30.01 in 10.0 mi Calm Calm - N/A   Clear
4:55 PM 75.2 °F 55.4 °F 50% 30.00 in 10.0 mi Calm Calm - N/A   Clear
5:15 PM 77.0 °F 55.4 °F 47% 30.01 in 10.0 mi WSW 4.6 mph - N/A   Mostly Cloudy
5:35 PM 73.4 °F 55.4 °F 53% 30.01 in 10.0 mi Calm Calm - N/A   Scattered Clouds
5:55 PM 73.4 °F 59.0 °F 61% 30.02 in 10.0 mi Calm Calm - N/A   Partly Cloudy
6:15 PM 68.0 °F 60.8 °F 78% 30.02 in 10.0 mi Calm Calm - N/A   Partly Cloudy
6:35 PM 62.6 °F 59.0 °F 88% 30.02 in 10.0 mi Calm Calm - N/A   Clear
6:55 PM 60.8 °F 55.4 °F 82% 30.02 in 10.0 mi Calm Calm - N/A   Clear
7:15 PM 59.0 °F 55.4 °F 88% 30.03 in 10.0 mi Calm Calm - N/A   Clear
7:35 PM 60.8 °F 55.4 °F 82% 30.04 in 10.0 mi SSE 3.5 mph - N/A   Scattered Clouds
7:55 PM 64.4 °F 57.2 °F 77% 30.04 in 10.0 mi Calm Calm - N/A   Mostly Cloudy
8:15 PM 60.8 °F 57.2 °F 88% 30.05 in 10.0 mi Calm Calm - N/A   Partly Cloudy
8:35 PM 57.2 °F 55.4 °F 94% 30.05 in 10.0 mi Calm Calm - N/A   Clear
8:55 PM 57.2 °F 55.4 °F 94% 30.06 in 10.0 mi Calm Calm - N/A   Clear
9:15 PM 55.4 °F 53.6 °F 94% 30.07 in 10.0 mi Calm Calm - N/A   Clear
9:35 PM 57.2 °F 55.4 °F 94% 30.07 in 10.0 mi Calm Calm - N/A   Clear
9:55 PM 55.4 °F 53.6 °F 94% 30.07 in 10.0 mi Calm Calm - N/A   Clear
10:15 PM 53.6 °F 51.8 °F 94% 30.07 in 10.0 mi Calm Calm - N/A   Clear
10:35 PM 53.6 °F 53.6 °F 100% 30.07 in 10.0 mi Calm Calm - N/A   Clear
10:55 PM 53.6 °F 51.8 °F 94% 30.06 in 10.0 mi Calm Calm - N/A   Clear
11:15 PM 53.6 °F 51.8 °F 94% 30.06 in 1.2 mi Calm Calm - N/A   Clear
11:35 PM 53.6 °F 53.6 °F 100% 30.06 in 4.0 mi Calm Calm - N/A   Mostly Cloudy
11:55 PM 55.4 °F 53.6 °F 94% 30.06 in 10.0 mi Calm Calm - N/A   Mostly Cloudy